Regional Weather Roundup
Issued by NWS Memphis, TN

Home | Current Version | Previous Version | Text Only | Print | Product List | Glossary On
Versions: 1 2 3 4 5 6 7 8 9 10 11 12 13 14 15 16 17 18 19 20 21 22 23 24 25 26 27 28 29 30 31 32 33 34 35 36 37 38 39 40 41 42 43 44 45 46 47 48 49 50
000
ASUS44 KMEG 280410
RWRMEG
MEMPHIS CWA HOURLY WEATHER ROUNDUP
NATIONAL WEATHER SERVICE MEMPHIS TN
1000 PM CST MON FEB 27 2017

...WEST TENNESSEE...

CITY           SKY/WX    TMP DP  RH WIND       PRES   REMARKS
MEMPHIS INTL   MOCLDY    57  52  83 SE12      30.09F
NWS MEMPHIS      N/A     56 N/A N/A MISG        N/A
JACKSON        CLOUDY    57  52  83 S10       30.11F
BOLIVAR        CLOUDY    55  52  88 SE9G15    30.12F
SAVANNAH       MOCLDY    55  52  88 S6        30.15F
UNION CITY     PTCLDY    55  46  71 SE9       30.08F
PARIS          PTCLDY    52  45  76 SE12      30.13F
HUNTINGDON     MOCLDY    55  48  76 SE8       30.12F


...EASTERN ARKANSAS...

CITY           SKY/WX    TMP DP  RH WIND       PRES   REMARKS
JONESBORO      MOCLDY    57  52  83 SE12      30.04F
WEST MEMPHIS   CLOUDY    57  54  89 SE13      30.07F
BATESVILLE     CLOUDY    55  50  82 SE6       30.04R
NEWPORT        CLOUDY    56  52  86 S13       30.05R
WALNUT RIDGE   CLOUDY    55  50  82 S10       30.03F
BLYTHEVILLE    CLOUDY    57  52  83 S9        30.06F
SEARCY         CLOUDY    56  54  93 SE5       30.06R
STUTTGART      CLOUDY    57  48  72 SE9       30.05F
PINE BLUFF     CLOUDY    57  55  93 SE8       30.04F
MONTICELLO     PTCLDY    60  57  89 SE8       30.04S


...NORTH MISSISSIPPI...

CITY           SKY/WX    TMP DP  RH WIND       PRES   REMARKS
TUPELO         CLOUDY    57  54  89 SE10      30.15S
OXFORD         MOCLDY    54  50  87 E7        30.13F
BATESVILLE     MOCLDY    56  54  91 E5        30.12S
TUNICA         CLOUDY    55  54  94 SE6       30.10F
CORINTH        CLOUDY    57  52  82 SE9G16    30.15S
GREENWOOD      MOCLDY    61  55  81 SE15G22   30.07F
COLUMBUS       CLOUDY    58  56  92 SE9       30.16S
STARKVILLE     CLOUDY    57  55  94 SE8       30.16F
GOLDEN TRIANGL CLOUDY    57  52  82 SE10      30.12F


...SOUTHEAST MISSOURI...

CITY           SKY/WX    TMP DP  RH WIND       PRES   REMARKS
KENNETT        CLOUDY    59  52  77 S12G20    30.05S
MALDEN         MOCLDY    59  50  72 S14       30.06S
WEST PLAINS    CLOUDY    54  50  86 S9        30.01R
POPLAR BLUFF   CLOUDY    56  52  86 S8        30.04S
CAPE GIRARDEAU CLOUDY    56  46  69 S9        30.07R


...NORTHWEST ALABAMA...

CITY           SKY/WX    TMP DP  RH WIND       PRES   REMARKS
MUSCLE SHOALS  CLOUDY    55  50  83 E6        30.20R


...MIDDLE TENNESSEE...

CITY           SKY/WX    TMP DP  RH WIND       PRES   REMARKS
NASHVILLE      PTCLDY    51  45  79 S7        30.21R
CLARKSVILLE    CLOUDY    53  44  71 S9        30.16R
COLUMBIA       PTCLDY    52  52 100 VRB3      30.18S


...WESTERN KENTUCKY...

CITY           SKY/WX    TMP DP  RH WIND       PRES   REMARKS
PADUCAH        CLOUDY    57  44  62 S12       30.08S
FORT CAMPBELL  CLOUDY    54  45  70 SE8       30.15R


...CENTRAL ARKANSAS...

CITY           SKY/WX    TMP DP  RH WIND       PRES   REMARKS
LITTLE ROCK    CLOUDY    56  55  97 SE7       30.04S


SKY/WX REPORTED AS FAIR MEANS FEW OR NO CLOUDS BELOW
12 THOUSAND FEET.




USA.gov is the U.S. government's official web portal to all federal, state and local government web resources and services.